Location: ??????????
(48.4699°N, 37.9573°E)
Time: 02:15:51
(UTC+00:00)

Cosmos 1503 Rocket - Pass Details

Date: 20 January 2021
Orbit: 752 x 791 km, 74.0° (Epoch: 24 February)

Event Time Altitude Azimuth Distance (km) Brightness Sun altitude
Rises 14:33:33 0° 193° (SSW) 3,264 7.9 -4.6°
Reaches altitude 10° 14:35:56 10° 190° (S) 2,344 7.1 -4.9°
Maximum altitude 14:41:13 68° 109° (ESE) 853 4.1 -5.7°
Drops below altitude 10° 14:46:34 10° 27° (NNE) 2,367 6.1 -6.5°
Sets 14:48:59 0° 25° (NNE) 3,299 6.8 -6.9°
